CDT,Max TemperatureF,Mean TemperatureF,Min TemperatureF,Max Dew PointF,MeanDew PointF,Min DewpointF,Max Humidity, Mean Humidity, Min Humidity, Max Sea Level PressureIn, Mean Sea Level PressureIn, Min Sea Level PressureIn, Max VisibilityMiles, Mean VisibilityMiles, Min VisibilityMiles, Max Wind SpeedMPH, Mean Wind SpeedMPH, Max Gust SpeedMPH,PrecipitationIn, CloudCover, Events, WindDirDegrees
2013-5-1,71,66,60,59,56,52,88,71,57,30.16,30.11,30.05,10,10,10,16,7,21,0.00,3,,87
2013-5-2,66,62,57,57,55,52,82,74,64,30.17,30.12,30.08,10,10,10,14,10,18,0.00,5,,75
2013-5-3,73,66,59,57,55,52,88,71,53,30.08,29.98,29.89,10,10,5,15,9,24,0.28,8,,88
2013-5-4,60,52,44,55,45,41,94,88,81,29.98,29.92,29.87,10,8,3,12,5,,3.03,8,,323
2013-5-5,62,50,39,48,44,37,93,82,52,29.89,29.85,29.80,10,10,7,13,2,16,0.47,6,Thunderstorm,286
2013-5-6,55,50,46,52,47,45,94,89,82,29.93,29.87,29.80,10,8,1,13,6,20,1.19,6,,227
2013-5-7,69,56,42,54,48,41,93,77,46,30.02,29.98,29.91,10,9,0,10,2,,0.00,4,,280
2013-5-8,78,62,46,57,52,43,93,73,44,30.10,30.05,30.01,10,10,9,9,2,18,0.00,1,,280
2013-5-9,82,66,51,61,55,48,94,69,39,30.15,30.09,30.04,10,10,2,9,1,,0.00,0,,216
2013-5-10,73,64,55,61,56,54,94,76,53,30.10,30.03,29.96,10,10,8,9,2,,0.00,2,,209
2013-5-11,77,67,55,63,59,52,94,80,61,30.03,29.97,29.92,10,10,5,15,3,24,0.06,4,,264
2013-5-12,66,55,44,52,42,36,94,62,32,30.15,30.10,30.01,10,10,7,14,3,18,0.00,0,,329
2013-5-13,66,52,37,43,38,36,93,70,32,30.29,30.22,30.15,10,10,10,13,2,16,0.00,0,,309
2013-5-14,82,63,44,55,52,41,87,57,37,30.26,30.18,30.10,10,10,10,12,2,17,0.00,0,,224
2013-5-15,84,68,53,61,55,48,88,64,35,30.20,30.11,30.03,10,10,10,12,2,16,0.00,0,,258
2013-5-16,82,71,60,61,57,50,88,68,34,30.09,30.03,29.98,10,10,9,12,1,16,0.00,0,,212
2013-5-17,77,70,62,66,62,59,94,81,57,30.09,30.04,29.98,10,9,3,7,2,,1.06,4,Thunderstorm,138
2013-5-18,78,72,66,70,66,63,94,87,74,30.07,30.03,29.99,10,8,2,9,3,,0.82,6,Thunderstorm,152
2013-5-19,80,72,64,70,67,61,94,85,70,30.08,30.04,30.00,10,8,2,16,3,26,0.15,6,Thunderstorm,169
2013-5-20,82,70,59,68,63,55,94,79,54,30.11,30.04,30.00,10,9,2,9,3,,0.00,3,,121
2013-5-21,87,74,60,68,64,57,94,73,46,30.04,29.97,29.87,10,8,2,10,2,17,0.00,0,,196
2013-5-22,84,75,64,68,65,61,94,77,51,29.96,29.92,29.87,10,9,3,13,3,18,0.25,2,Thunderstorm,197
2013-5-23,84,72,60,66,60,54,94,68,39,30.05,29.99,29.93,10,10,5,15,4,22,0.00,1,,286
2013-5-24,75,64,53,55,51,45,88,62,34,30.25,30.18,30.05,10,10,10,15,6,21,0.09,1,,349
2013-5-25,77,62,46,57,48,43,93,63,34,30.32,30.26,30.19,10,10,7,12,2,,0.00,0,,21
2013-5-26,82,66,50,59,53,46,94,64,35,30.27,30.20,30.15,10,10,2,7,1,,0.00,0,,204
2013-5-27,84,70,55,64,58,52,94,69,40,30.22,30.15,30.09,10,10,9,9,2,16,0.00,0,,203
2013-5-28,84,70,57,63,59,54,94,65,45,30.18,30.12,30.07,10,10,8,10,2,,0.00,0,,155
2013-5-29,87,74,60,66,61,55,88,63,43,30.19,30.12,30.07,10,10,9,13,5,18,0.00,1,,122
2013-5-30,84,75,66,66,64,61,83,69,51,30.19,30.13,30.07,10,10,3,12,3,,0.00,4,,130
2013-5-31,87,76,66,66,64,63,88,67,43,30.16,30.09,30.03,10,10,4,14,4,21,0.00,3,,146